STARLINK-11168, 60183

Orbit data source: Space-Track

STARLINK-11168, 60183 is a payload satellite owned by SpaceX/Seattle (US) in LEO that was launched on Wed, 03 Jul 2024 UTC via an FALCON 9 launch vehicle from the Air Force Eastern Test Range (AFETR). Payload-class satellites include a variety of spacecraft equipped with specific instruments for various scientific and technological missions. These include communications satellites like Starlink; space stations such as the ISS; scientific satellites like the Hubble; Earth observation satellites from companies like Planet Labs, Umbra, and HawkEye 360; GPS; miniature CubeSats for education and research; and military/defense satellites.

Loading next visibility...
Identifier
60183, 2024-124A
Orbit
LEO
Country
Flag of USUS
Related business
Manufacturer
SpaceX/Seattle
Mission
Operational Commercial Communications
Bus & Motor
STARLINK V2MD, Unknown motor
Mass
960 kg wet, ~910 kg dry
Launch date (UTC)
2024-07-03 (1 year ago)
Launch vehicle
FALCON 9
Launch site
Air Force Eastern Test Range (AFETR)
Object type
Payload
Rocket body
Debris
Shape & HBR
Box + 2 Pan, 18.1 m
Radar Cross Section
36.964 m², Large (>1 m²)

Expand to show TLE details & history
Last TLE update: 16 hours ago

TLE from 16 hours ago
0 STARLINK-11168
1 60183U 24124A   25304.74942264  .00023789  00000-0  20070-3 0  9994
2 60183  53.1558  76.8107 0001457  81.3372 278.7811 15.69704350 77476
Epoch: 2025-10-31T17:59Z
TLE epoch observation values (Epoch: 2025-10-31T17:59:10.116Z)
Latitude
0.00001°
Longitude
126.72917°
Altitude
360.508 km
Speed
7.694 km/s
True Right ascension
05h 07m 14s
True Declination
0° 00' 00"
Sunlit
Object was in full shadow at epoch
Visualization orbit readout
Latitude
Unknown
Longitude
Unknown
Altitude
Unknown
Speed
Unknown
Apparent Right ascension
Unknown
Apparent Declination
Unknown
Sunlit
N/A
Visualization observer readout
Local Sidereal Time
06:10:26
Azimuth
Unknown
Elevation
Unknown
Doppler factor
Unknown
Orbital elements
Apogee altitude
360.986 km
Perigee altitude
359.023 km
Semi-major axis
6,738.141 km
Eccentricity
0.00015
Inclination
53.1558°
RAAN
76.8107°
Arg. of periapsis
81.3372°
True anomaly
278.7646°
Mean anomaly
278.7811°
Eccentric anomaly
278.77285°
Mean motion
3.92404 °/min
Orbital period
91.74 mins
BSTAR
0.0002007
Loading maneuver chart data...
Computing Atmospheric mass density...
Loading historical data...
Loading historical data...
Loading historical data...
Loading historical data...
Loading historical data...
Loading historical data...
Loading historical data...

Documentation

Showing up to 5 results
|